Location: Tel Aviv
(32.0670°N, 34.7670°E)
Time: 11:16:22
(UTC+03:00)

MOZHAYETS 4 - Visible Passes

Search period start: 16 September 2024 00:00
Search period end: 26 September 2024 00:00
Orbit: 650 x 668 km, 98.3° (Epoch: 16 September)

Date Brightness Start Highest point End Pass type
(mag) Time Alt. Az. Time Alt. Az. Time Alt. Az.
16 Sep 7.5 04:31:56 84° WSW 04:31:58 84° WSW 04:36:30 10° NNW visible
17 Sep 10.4 03:23:49 15° E 03:24:48 16° ENE 03:27:36 10° NNE visible
17 Sep 8.2 05:01:48 36° W 05:01:48 36° W 05:05:30 10° NNW visible
18 Sep 9.2 03:53:42 34° ENE 03:53:51 34° ENE 03:57:55 10° N visible
18 Sep 9.2 05:31:42 16° W 05:31:42 16° W 05:33:42 10° NW visible
19 Sep 7.9 04:23:35 65° NNE 04:23:35 65° NNE 04:27:33 10° N visible
20 Sep 10.6 03:15:29 13° ENE 03:15:55 13° ENE 03:17:56 10° NE visible
20 Sep 8.3 04:53:29 38° WNW 04:53:29 38° WNW 04:56:41 10° NNW visible
21 Sep 9.7 03:45:22 26° ENE 03:45:22 26° ENE 03:48:42 10° NNE visible
21 Sep 9.2 05:23:21 18° WNW 05:23:21 18° WNW 05:25:11 10° NW visible
22 Sep 8.6 04:15:15 43° NNE 04:15:15 43° NNE 04:18:29 10° N visible
23 Sep 8.6 04:45:08 33° NNW 04:45:08 33° NNW 04:47:44 10° NNW visible
24 Sep 10.1 03:37:01 19° NE 03:37:01 19° NE 03:39:18 10° NNE visible
24 Sep 9.3 05:15:01 18° NW 05:15:01 18° NW 05:16:27 10° NW visible
25 Sep 9.3 04:06:54 28° NNE 04:06:54 28° NNE 04:09:16 10° N visible
